Погода в Петруни

Россия / Республика Коми     66°28′19″N   60°44′33″E
темп.,
°C
ветер,
м/с
пор.,
м/с
влажн.,
%
обл.,
%
осадки,
мм/ч
давл.,
гПа
погр.,
м
8 августа, пн
пн800:00+18ююз612690 0.0 1013169
03:00+17юз611710 0.0 1013152
06:00+21юз811610 0.0 1013367
09:00+26юз710465 0.0 10121148
12:00+27з91145100 0.0 10122344
15:00+17сз91073100 2.3 1016686
18:00+16з357324 0.0 1018222
21:00+14юз4577100 0.0 101877
9 августа, вт
вт900:00+13зюз467928 0.0 101864
03:00+12з477812 0.0 101997
06:00+16зсз68625 0.0 1020590
09:00+18з8105124 0.0 10201811
12:00+17зсз81050100 0.0 10211598
15:00+17ссз984828 0.0 10221268
18:00+14ссз68545 0.0 1023585
21:00+9зсз44685 0.0 102431
10 августа, ср
ср1000:00+9юз4467100 0.0 102440
03:00+11зюз4660100 0.0 1024171
06:00+12з5759100 0.0 1025379
09:00+16зсз45506 0.0 10241386
12:00+17зсз4444100 0.0 10231972
15:00+17всв1244100 0.0 10231280
18:00+15юв345624 0.0 102258
21:00+11юв5665100 0.0 102159
11 августа, чт
чт1100:00+11юв4564100 0.0 102056
03:00+11юв4562100 0.0 101877
06:00+15ююв56555 0.0 1016338
09:00+18ююв555021 0.0 10141128
12:00+19юв33467 0.0 10131402
15:00+18ююв4552100 0.0 1011665
18:00+16ю466283 0.0 1011180
21:00+11ююв458115 0.0 101057
12 августа, пт
пт1200:00+9ююв5685100 0.0 100881
03:00+11ю488791 0.0 1006188
06:00+12ююз5882100 0.0 1005258
09:00+13юз5781100 0.0 1005402
12:00+12зюз4697100 1.8 1004317
15:00+13зсз3697100 4.4 1004270
18:00+12с5987100 2.0 1005371
21:00+11сз4783100 2.0 1006149